Date,TemperatureHighF,TemperatureAvgF,TemperatureLowF,DewpointHighF,DewpointAvgF,DewpointLowF,HumidityHigh,HumidityAvg,HumidityLow,PressureMaxIn,PressureMinIn,WindSpeedMaxMPH,WindSpeedAvgMPH,GustSpeedMaxMPH,PrecipitationSumIn
2013-1-1,34.5,27.9,17.5,33.7,26.1,15.4,97,93,88,30.22,29.99,4,0,7,0.02
2013-1-2,35.7,23.3,12.9,23.4,17.5,10.9,94,80,55,30.24,30.15,5,0,6,0.01
2013-1-3,42.7,29.1,20.0,29.2,22.7,17.8,95,78,51,30.38,30.22,10,0,10,0.01
2013-1-4,46.1,32.8,21.1,26.9,23.5,18.7,94,71,44,30.42,30.28,9,1,14,0.00
2013-1-5,41.2,34.8,27.4,33.5,28.8,22.6,89,79,68,30.28,30.10,7,0,10,0.00
2013-1-6,44.6,32.7,21.1,30.6,24.4,16.5,88,73,45,30.32,30.15,10,1,12,0.00
2013-1-7,51.2,34.8,18.8,30.7,24.1,15.1,90,67,43,30.32,30.08,8,1,10,0.00
2013-1-8,53.9,39.6,27.3,46.1,32.2,22.8,96,76,50,30.15,30.00,7,0,8,0.25
2013-1-9,55.9,47.8,43.7,46.4,42.6,34.6,97,84,56,30.31,30.15,8,0,10,0.01
2013-1-10,51.7,47.1,41.6,51.1,45.1,35.3,100,93,58,30.21,29.74,12,1,16,0.47
2013-1-11,66.4,54.4,45.0,50.1,46.3,43.4,97,76,48,29.79,29.65,13,1,16,0.00
2013-1-12,53.8,41.9,27.4,48.1,36.4,25.6,94,82,56,29.88,29.72,8,1,11,0.45
2013-1-13,27.3,21.3,13.6,25.8,18.5,11.2,94,89,80,30.34,29.86,0,0,0,0.00
2013-1-14,32.5,19.3,9.0,21.5,14.2,6.4,93,81,60,30.48,30.33,2,0,5,0.01
2013-1-15,33.9,22.1,12.3,21.3,15.7,9.9,92,78,44,30.34,30.15,3,0,5,0.01
2013-1-16,41.9,26.8,13.7,24.2,18.5,11.6,94,73,44,30.16,30.06,12,1,13,0.01
2013-1-17,48.3,34.0,25.7,33.6,25.5,20.1,94,72,46,30.44,30.14,9,0,10,0.00
2013-1-18,59.0,39.8,24.1,33.0,26.1,20.4,92,63,27,30.46,30.12,13,1,19,0.00
2013-1-19,64.6,49.6,38.7,39.5,33.7,26.6,72,55,37,30.13,29.96,16,2,16,0.00
2013-1-20,56.7,40.7,27.4,34.4,25.0,15.8,88,57,29,30.23,30.08,6,0,8,0.00
2013-1-21,36.9,25.9,17.8,18.9,14.5,11.1,78,62,45,30.34,30.22,7,0,10,0.00
2013-1-22,34.0,25.4,17.9,19.4,15.8,12.7,84,68,52,30.34,30.22,8,0,11,0.00
2013-1-23,59.6,37.4,19.5,43.7,28.6,16.0,91,72,52,30.25,30.10,8,1,10,0.00
2013-1-24,35.2,29.9,25.1,25.1,16.1,10.7,68,56,47,30.34,30.11,13,1,14,0.00
2013-1-25,51.6,35.4,26.1,31.7,26.5,18.6,93,72,43,30.21,30.08,9,0,11,0.00
2013-1-26,59.0,43.1,28.4,30.0,26.3,23.2,87,56,28,30.24,30.10,10,1,12,0.00
2013-1-27,53.9,47.4,40.5,51.9,42.5,27.7,94,84,50,30.10,29.84,10,2,14,0.03
2013-1-28,73.7,64.9,53.7,61.9,58.9,52.3,95,82,63,29.87,29.72,18,2,21,0.00
2013-1-29,68.1,59.4,47.7,62.0,56.3,46.9,97,90,78,29.72,29.34,13,1,20,3.21
2013-1-30,47.7,31.6,25.8,46.9,27.4,19.0,97,84,75,29.98,29.34,19,4,25,0.01
2013-1-31,41.4,24.8,11.8,29.4,18.3,3.5,91,77,56,30.42,29.95,11,1,15,0.02
2013-2-1,33.9,21.2,7.1,16.7,9.2,1.8,82,61,41,30.46,30.18,9,1,14,0.02
2013-2-2,52.8,37.0,23.6,36.9,27.1,15.6,89,68,52,30.19,30.08,18,1,18,0.02
2013-2-3,52.2,42.8,33.5,32.0,27.2,23.6,80,56,35,30.20,29.90,13,1,20,0.00
2013-2-4,62.4,47.9,34.4,44.2,34.6,25.7,83,61,43,29.90,29.74,13,2,16,0.00
2013-2-5,63.3,39.9,25.0,39.3,30.6,23.4,97,73,34,30.02,29.85,11,0,14,0.01
2013-2-6,59.0,44.1,29.6,40.3,33.9,26.3,90,69,45,30.09,29.91,13,1,14,0.00
2013-2-7,56.3,47.3,40.4,50.6,43.6,38.0,96,87,71,30.01,29.79,7,1,13,0.49
2013-2-8,51.0,38.3,31.4,38.1,31.8,28.3,93,79,52,30.25,30.01,8,0,10,0.00
2013-2-9,40.1,34.9,31.3,36.5,31.1,28.2,100,86,71,30.20,29.83,14,2,16,0.16
2013-2-10,61.2,48.4,36.8,54.7,37.2,26.7,100,70,33,29.93,29.56,24,5,27,0.32
2013-2-11,53.2,39.3,28.5,31.6,26.7,23.0,83,62,37,30.11,29.93,10,1,11,0.00
2013-2-12,45.4,34.1,22.9,33.7,28.2,20.4,95,80,55,30.10,29.87,4,0,6,0.04
2013-2-13,48.5,37.1,31.5,37.2,31.9,29.8,100,83,58,29.92,29.85,14,1,15,0.25
2013-2-14,55.3,44.0,34.3,37.6,30.4,24.0,78,60,42,30.07,29.86,9,1,12,0.00
2013-2-15,42.9,34.4,24.1,31.0,20.5,12.7,85,59,34,30.24,30.07,13,1,13,0.00
2013-2-16,36.0,29.6,22.5,22.7,19.1,13.1,88,66,46,30.28,30.09,13,1,13,0.02
2013-2-17,65.3,46.5,28.9,36.2,27.4,19.6,69,49,28,30.09,29.76,12,1,13,0.00
2013-2-18,56.6,47.4,30.8,50.9,38.9,23.4,92,73,57,30.00,29.49,17,2,25,0.15
2013-2-19,43.6,31.9,23.4,23.4,17.4,11.5,78,57,34,30.25,30.00,16,2,17,0.00
2013-2-20,34.4,28.4,22.2,16.7,13.3,10.5,76,53,41,30.28,30.09,8,0,10,0.00
2013-2-21,31.9,28.8,26.4,30.8,25.3,13.5,96,87,49,30.10,29.68,13,2,17,0.05
2013-2-22,32.9,26.6,20.8,31.6,21.8,17.8,96,82,64,30.07,29.78,13,2,17,0.02
2013-2-23,42.1,27.6,15.8,26.1,20.1,13.6,100,75,48,30.07,29.94,9,1,11,0.25
2013-2-24,55.1,38.9,20.8,36.3,28.3,18.0,92,68,46,29.99,29.84,11,1,15,0.19
2013-2-25,46.0,37.5,32.1,34.3,30.4,27.0,94,77,50,29.86,29.34,13,1,15,0.58
2013-2-26,34.4,32.0,31.4,33.5,30.6,29.8,100,94,93,29.78,29.27,14,1,17,0.40
2013-2-27,33.1,31.5,30.2,29.8,28.1,26.4,93,87,79,29.98,29.74,18,4,21,0.00
2013-2-28,32.7,30.1,27.4,27.5,25.7,24.2,89,83,79,30.13,29.97,10,1,13,0.00
2013-3-1,29.7,27.8,26.1,26.8,24.1,22.6,92,86,79,30.20,30.10,10,1,14,0.00
2013-3-2,35.1,26.9,20.4,24.7,20.7,16.6,91,78,59,30.29,30.17,9,1,11,0.00
2013-3-3,56.2,37.6,19.4,31.7,24.7,16.5,92,63,35,30.18,29.78,11,1,18,0.00
2013-3-4,66.2,48.8,37.0,46.5,37.8,27.8,89,67,47,29.78,29.54,12,2,14,0.00
2013-3-5,41.4,35.7,28.0,34.7,26.3,20.5,93,70,52,30.23,29.74,19,3,23,0.07
2013-3-6,47.5,34.0,24.3,27.7,22.3,17.1,76,63,43,30.35,30.21,6,1,11,0.00
2013-3-7,61.4,44.7,30.5,34.6,28.6,23.4,79,56,28,30.25,30.09,10,1,14,0.00
2013-3-8,58.2,46.6,34.9,39.5,34.6,30.3,84,64,46,30.21,30.00,13,2,13,0.02
2013-3-9,72.4,55.8,43.5,55.7,46.4,38.0,96,73,42,30.00,29.62,20,2,22,0.09
2013-3-10,56.9,46.5,30.6,55.5,44.9,28.8,100,94,75,29.81,29.53,15,2,21,0.91
2013-3-11,42.9,32.4,26.8,30.8,25.5,22.7,93,77,49,29.98,29.78,15,4,19,0.00
2013-3-12,54.2,39.2,27.2,32.4,26.1,22.4,87,62,38,30.26,29.98,17,1,20,0.00
2013-3-13,49.2,36.3,25.2,28.6,23.4,19.6,81,61,37,30.41,30.25,11,1,17,0.00
2013-3-14,71.8,48.8,28.0,43.8,32.2,22.0,82,55,34,30.32,30.02,18,2,22,0.00
2013-3-15,80.7,64.2,49.3,52.5,45.4,39.7,76,53,28,30.02,29.63,19,2,20,0.00
2013-3-16,66.8,58.3,43.3,51.3,44.3,37.1,79,60,45,29.81,29.61,14,2,16,0.00
2013-3-17,43.3,39.2,36.6,39.3,37.7,35.0,100,94,79,29.87,29.63,10,1,11,0.46
2013-3-18,53.7,43.4,38.7,41.3,37.0,29.8,98,80,49,29.97,29.63,13,1,15,0.16
2013-3-19,48.5,37.6,27.1,30.7,26.2,17.0,89,66,35,30.19,29.96,5,0,8,0.51
2013-3-20,45.6,35.5,27.6,31.0,21.1,13.4,95,60,29,30.29,30.08,16,1,24,0.00
2013-3-21,38.0,29.2,23.9,28.4,21.6,13.8,95,75,40,30.08,29.84,10,1,10,0.36
2013-3-22,36.5,32.7,29.3,34.1,31.2,28.0,96,94,91,29.91,29.83,7,0,11,0.00
2013-3-23,40.7,37.2,33.9,39.0,35.7,32.9,97,94,83,29.91,29.66,5,0,7,0.05
2013-3-24,40.1,33.3,27.7,39.3,31.3,21.9,97,92,79,30.02,29.52,20,2,24,0.30
2013-3-25,31.8,26.9,21.8,26.0,21.7,17.4,88,81,70,30.27,29.99,17,3,19,0.08
2013-3-26,42.1,31.2,21.4,28.1,23.9,19.2,93,75,52,30.37,30.27,11,1,11,0.01
2013-3-27,52.6,39.0,22.2,32.5,26.3,19.0,91,63,39,30.32,30.13,9,1,15,0.00
2013-3-28,69.8,55.7,42.7,48.2,39.9,31.3,71,56,42,30.18,30.03,8,1,12,0.00
2013-3-29,68.0,57.2,50.2,55.8,49.5,42.5,97,77,56,30.09,30.01,6,0,7,0.20
2013-3-30,69.5,55.8,49.3,56.9,50.7,47.0,95,84,57,30.04,29.75,12,1,16,0.35
2013-3-31,68.5,56.5,46.3,51.2,45.4,39.8,97,70,39,29.88,29.75,13,1,14,0.15
2013-4-1,56.5,45.7,35.5,43.2,36.2,28.9,94,70,53,30.14,29.86,9,1,10,0.01
2013-4-2,40.0,36.9,33.5,33.7,31.5,27.9,90,81,65,30.23,30.10,6,0,8,0.19
2013-4-3,55.4,42.2,29.2,31.7,27.8,24.2,89,61,34,30.25,30.11,9,1,12,0.00
2013-4-4,55.3,47.1,40.4,35.9,31.2,27.8,81,55,38,30.11,29.98,3,0,7,0.00
2013-4-5,71.5,51.9,29.2,43.4,35.1,26.7,94,58,30,30.12,29.90,4,0,12,0.00
2013-4-6,74.9,61.9,51.2,50.1,43.4,35.8,61,51,37,29.91,29.67,17,3,21,0.00
2013-4-7,79.2,65.2,55.1,60.2,53.1,47.8,85,66,42,29.80,29.62,12,1,16,0.00
2013-4-8,74.3,65.5,58.8,62.5,57.9,54.5,88,77,63,29.68,29.61,12,2,13,0.00
2013-4-9,79.1,68.5,61.1,65.0,59.6,55.4,85,74,57,29.70,29.60,12,2,16,0.00
2013-4-10,70.8,53.5,38.0,65.0,50.3,36.5,96,89,72,29.74,29.57,16,2,21,0.30
2013-4-11,48.5,38.8,33.2,36.7,33.1,30.6,100,81,56,29.76,29.67,16,4,18,0.46
2013-4-12,54.7,42.7,33.6,39.0,32.8,28.4,87,69,50,29.97,29.73,18,2,18,0.06
2013-4-13,71.0,52.7,34.4,49.9,40.2,31.6,94,66,40,30.01,29.73,13,1,13,0.00
2013-4-14,82.0,66.4,53.2,58.2,49.0,41.7,87,58,26,29.74,29.41,17,2,19,0.02
2013-4-15,82.1,65.0,53.7,66.4,57.5,47.9,92,78,54,29.76,29.57,10,1,13,0.00
2013-4-16,68.4,53.9,48.8,59.3,50.5,46.8,96,89,69,29.93,29.76,6,1,10,0.00
2013-4-17,83.5,68.4,47.8,71.6,61.0,46.4,99,79,59,29.91,29.52,15,2,20,0.00
2013-4-18,73.6,51.0,37.5,66.4,46.9,29.3,98,86,72,29.85,29.42,23,3,26,2.43
2013-4-19,52.6,42.3,33.0,34.1,28.5,24.7,75,59,39,30.04,29.85,18,4,22,0.00
2013-4-20,66.0,49.8,29.8,42.9,35.2,27.9,100,62,33,30.17,30.03,8,0,9,0.00
2013-4-21,68.5,55.9,47.4,46.7,41.3,38.1,80,60,37,30.21,30.05,13,1,16,0.00
2013-4-22,69.5,58.4,45.2,46.2,41.3,37.8,76,55,35,30.12,29.82,13,1,13,0.00
2013-4-23,60.2,48.0,35.6,53.8,44.0,34.4,97,87,60,30.01,29.75,9,0,11,0.59
2013-4-24,54.7,41.4,33.7,38.1,32.9,27.9,96,75,42,30.25,30.01,14,1,14,0.00
2013-4-25,69.9,51.4,31.2,42.2,34.8,28.4,94,59,28,30.31,30.15,10,1,10,0.00
2013-4-26,58.1,48.8,45.8,46.4,43.8,37.8,96,85,47,30.24,30.08,14,1,15,1.30
2013-4-27,54.5,50.0,46.1,52.2,48.8,45.0,97,96,91,30.10,29.91,11,1,14,0.12
2013-4-28,74.2,58.4,48.4,57.5,50.1,46.6,96,76,43,29.95,29.78,8,1,13,0.00
2013-4-29,87.3,68.7,49.2,65.2,55.4,47.8,98,67,32,29.82,29.64,11,1,13,0.00
2013-4-30,84.5,72.2,59.8,60.9,54.1,47.7,86,56,30,29.76,29.67,14,1,17,0.00
2013-5-1,83.2,70.2,59.0,66.0,59.1,49.9,87,69,48,29.95,29.76,11,1,17,0.00
2013-5-2,64.2,49.1,34.4,60.9,45.8,32.9,95,89,80,30.14,29.92,13,0,13,0.27
2013-5-3,36.2,33.0,31.7,35.2,31.9,30.6,96,96,95,30.13,29.86,8,0,14,0.93
2013-5-4,45.9,38.1,31.9,39.2,35.1,30.9,97,89,74,29.94,29.80,5,0,7,0.05
2013-5-5,59.2,48.2,38.1,50.9,43.9,36.3,96,85,70,30.01,29.92,14,1,14,0.00
2013-5-6,60.4,55.9,49.8,54.9,52.3,48.5,100,88,81,29.98,29.90,11,0,11,0.05
2013-5-7,60.4,60.4,60.4,54.9,54.9,54.9,82,82,82,29.99,29.90,0,0,0,0.00
2013-5-15,0.0,0.0,0.0,0.0,0.0,0.0,0,0,100,29.90,29.80,0,0,0,0.00
2013-5-16,0.0,0.0,0.0,0.0,0.0,0.0,0,0,100,29.82,29.76,0,0,0,0.00
2013-5-17,0.0,0.0,0.0,0.0,0.0,0.0,0,0,100,29.85,29.77,0,0,0,0.00
2013-5-18,0.0,0.0,0.0,0.0,0.0,0.0,0,0,100,29.85,29.73,0,0,0,0.00
2013-5-19,0.0,0.0,0.0,0.0,0.0,0.0,0,0,100,29.77,29.57,0,0,0,0.00
2013-5-20,0.0,0.0,0.0,0.0,0.0,0.0,0,0,100,29.76,29.62,0,0,0,0.00
2013-5-21,0.0,0.0,0.0,0.0,0.0,0.0,0,0,100,29.77,29.47,0,0,0,0.00
2013-5-22,0.0,0.0,0.0,0.0,0.0,0.0,0,0,100,29.85,29.67,0,0,0,0.00
2013-5-23,0.0,0.0,0.0,0.0,0.0,0.0,0,0,100,30.09,29.85,0,0,0,0.00
2013-5-24,0.0,0.0,0.0,0.0,0.0,0.0,0,0,100,30.23,30.09,0,0,0,0.00
2013-5-25,0.0,0.0,0.0,0.0,0.0,0.0,0,0,100,30.16,29.98,0,0,0,0.00
2013-5-26,0.0,0.0,0.0,0.0,0.0,0.0,0,0,100,30.04,29.90,0,0,0,0.00
2013-5-27,0.0,0.0,0.0,0.0,0.0,0.0,0,0,100,29.91,29.70,0,0,0,0.00
2013-5-28,83.2,31.4,0.0,72.0,26.1,0.0,76,26,42,29.78,29.66,6,0,16,0.08
2013-5-29,81.5,74.0,66.6,69.6,64.7,62.3,89,74,59,29.78,29.64,10,2,15,0.00
2013-5-30,81.8,70.1,62.2,69.3,64.3,60.6,98,83,56,29.74,29.62,13,2,18,1.99
2013-5-31,84.8,73.1,64.5,74.4,68.5,62.3,97,86,65,29.70,29.55,10,1,14,0.07
2013-6-1,76.0,67.2,59.9,66.8,62.6,56.4,99,86,60,29.86,29.56,17,1,18,1.27
2013-6-2,64.8,58.9,51.5,58.6,55.8,50.7,99,90,76,29.96,29.85,6,0,7,0.00
2013-6-3,76.3,62.0,47.5,61.6,54.4,47.2,100,79,49,29.99,29.83,5,0,7,0.00
2013-6-4,75.5,66.1,59.3,66.2,60.6,56.5,92,83,68,29.91,29.81,8,0,11,0.00
2013-6-5,76.4,66.5,60.2,68.3,62.9,59.3,97,89,71,29.90,29.73,9,0,9,0.01
2013-6-6,71.5,63.4,58.1,65.1,60.8,57.1,99,91,74,29.83,29.77,3,0,6,0.01
2013-6-7,74.5,63.1,52.8,62.0,56.3,52.2,99,80,54,29.88,29.79,6,0,7,0.00
2013-6-8,79.6,65.8,48.9,61.7,55.8,48.4,99,73,40,29.86,29.74,6,0,8,0.00
2013-6-9,78.7,68.5,60.9,67.0,60.5,57.7,98,77,51,29.81,29.71,10,1,13,0.45
2013-6-10,87.5,74.9,60.7,74.6,65.7,57.7,92,74,56,29.79,29.71,8,1,11,0.00
2013-6-11,92.8,80.3,67.3,73.8,67.4,61.2,94,68,37,29.86,29.76,10,1,11,0.00
2013-6-12,90.2,80.9,70.9,73.6,69.6,66.9,92,70,49,29.82,29.72,13,2,18,0.00
2013-6-13,84.7,76.6,68.4,71.3,67.6,60.6,89,75,55,29.89,29.76,7,1,8,0.00
2013-6-14,87.8,75.1,63.1,74.5,67.3,62.1,98,78,60,29.93,29.81,10,1,10,0.00
2013-6-15,75.5,70.4,67.1,73.2,67.2,64.7,98,90,77,29.95,29.81,6,0,7,1.40
2013-6-16,86.3,75.1,66.9,75.6,70.1,65.2,99,86,61,29.89,29.77,7,1,8,0.66
2013-6-17,73.9,68.5,64.0,71.1,67.1,63.0,99,95,86,29.87,29.72,7,0,9,0.15
2013-6-18,84.0,70.4,57.7,71.6,64.3,56.9,100,83,54,29.92,29.82,6,0,9,0.00
2013-6-19,85.8,73.2,60.1,72.2,65.3,59.3,100,78,46,29.94,29.85,5,0,6,0.00
2013-6-20,87.8,76.5,63.8,73.0,67.7,61.9,98,76,53,29.96,29.87,9,1,11,0.00
2013-6-21,85.6,75.5,71.0,75.6,69.9,67.8,91,83,68,29.95,29.90,8,1,10,0.00
2013-6-22,89.0,79.4,72.0,77.0,72.3,68.8,95,80,57,29.94,29.81,7,1,9,0.00
2013-6-23,89.3,79.4,69.8,76.3,70.7,67.5,94,76,55,29.88,29.77,10,1,10,0.00
2013-6-24,89.6,80.5,71.2,75.9,70.5,67.9,90,73,51,29.92,29.80,9,1,13,0.00
2013-6-25,88.6,79.8,71.9,74.4,69.4,66.6,90,72,52,29.83,29.69,13,1,13,0.00
2013-6-26,91.6,82.4,73.1,78.6,72.8,67.9,89,74,56,29.76,29.68,11,1,12,0.00
2013-6-27,94.2,83.5,73.1,81.1,76.3,71.7,98,80,58,29.82,29.69,8,0,8,0.00
2013-6-28,87.0,77.2,67.8,77.2,69.0,62.2,98,77,52,29.79,29.67,22,1,22,0.83
2013-6-29,82.8,73.1,63.4,66.9,59.9,54.9,88,66,41,29.73,29.65,12,1,16,0.00
2013-6-30,78.1,68.4,61.0,67.1,61.5,58.8,96,79,57,29.85,29.70,6,0,12,0.01
2013-7-1,79.6,68.2,58.8,63.9,59.5,55.3,98,75,49,29.92,29.84,8,0,8,0.00
2013-7-2,80.0,66.5,53.9,61.0,55.9,51.8,97,71,42,29.97,29.90,6,0,9,0.00
2013-7-3,82.1,66.8,53.6,64.4,58.0,51.9,98,76,42,30.01,29.90,6,0,7,0.47
2013-7-4,83.9,68.6,56.7,66.9,60.6,53.5,99,78,38,29.97,29.87,5,0,9,0.15
2013-7-5,86.4,72.8,57.4,66.2,60.7,56.0,99,69,38,29.94,29.83,6,0,6,0.00
2013-7-6,89.0,76.1,64.2,68.3,64.0,58.3,94,69,41,29.91,29.80,8,0,8,0.00
2013-7-7,90.4,76.2,65.3,72.1,65.4,60.3,95,72,37,29.92,29.84,7,0,7,0.00
2013-7-8,91.0,79.1,67.8,75.2,68.6,64.0,94,72,50,29.97,29.88,4,0,8,0.00
2013-7-9,93.0,82.1,71.3,75.5,70.3,67.3,89,69,47,29.94,29.81,8,1,12,0.00
2013-7-10,92.5,81.1,73.3,77.5,71.6,67.0,91,74,46,29.89,29.77,5,0,6,0.00
2013-7-11,88.5,79.0,70.8,74.6,68.7,60.2,96,73,40,29.89,29.81,7,0,8,0.00
2013-7-12,87.9,75.0,64.6,67.0,60.5,55.3,84,63,36,29.95,29.86,8,0,9,0.00
2013-7-13,82.5,71.8,58.9,67.7,60.9,54.7,95,70,50,29.95,29.83,6,0,6,0.00
2013-7-14,87.3,74.3,61.5,67.8,60.9,56.7,94,66,37,29.96,29.88,8,0,8,0.00
2013-7-15,88.1,75.6,68.1,71.6,67.9,61.2,96,78,51,30.05,29.96,7,0,11,0.52
2013-7-16,88.4,74.4,68.3,76.8,71.6,67.4,99,92,56,30.15,30.05,7,0,7,0.51
2013-7-17,90.3,78.7,68.0,75.4,71.2,67.0,100,80,49,30.21,30.06,5,0,10,0.00
2013-7-18,92.7,83.2,68.5,75.8,69.3,61.4,97,65,37,30.08,29.89,4,0,5,0.00
2013-7-19,92.7,78.8,68.9,76.3,70.1,66.3,95,76,48,29.90,29.78,6,0,8,0.00
2013-7-20,89.2,75.6,69.3,75.2,69.8,66.6,95,83,59,29.85,29.72,7,0,16,0.03
2013-7-21,83.4,74.0,68.6,76.7,71.2,67.7,98,91,70,29.82,29.72,5,0,8,0.48
2013-7-22,84.9,75.7,65.4,72.9,69.7,63.9,98,83,57,29.80,29.71,13,1,16,0.21
2013-7-23,93.3,80.7,71.7,80.7,72.4,63.4,94,77,58,29.76,29.64,10,1,13,0.00
2013-7-24,84.9,75.5,67.5,74.1,69.1,62.5,97,81,59,29.90,29.73,8,0,9,0.01
2013-7-25,85.1,72.6,60.2,69.8,63.7,58.8,98,75,46,29.98,29.90,5,0,5,0.00
2013-7-26,71.5,68.4,63.9,68.8,66.1,62.9,98,93,78,29.94,29.88,4,0,5,2.31
2013-7-27,76.3,68.4,62.5,65.8,62.7,57.9,99,84,55,29.95,29.86,6,0,8,0.00
2013-7-28,71.1,66.0,60.4,66.9,63.0,58.6,98,90,76,29.96,29.89,3,0,5,0.00
2013-7-29,82.6,72.5,64.9,75.1,68.8,63.5,98,88,73,29.99,29.88,7,0,9,0.23
2013-7-30,82.0,74.2,70.0,78.4,73.0,69.0,99,96,85,29.93,29.85,8,0,9,3.52
2013-7-31,85.2,76.4,68.8,77.0,72.4,66.4,100,88,67,29.94,29.86,7,0,7,0.00
2013-8-1,86.1,74.1,61.9,71.9,66.4,61.0,99,79,50,29.99,29.86,5,0,6,0.00
2013-8-2,87.5,76.4,69.7,78.7,71.0,66.1,92,84,69,29.87,29.74,8,1,9,0.00
2013-8-3,86.0,76.1,68.2,76.4,72.0,67.6,99,88,64,29.97,29.73,17,0,26,1.77
2013-8-4,74.1,72.1,69.7,72.5,71.1,68.6,98,97,93,30.03,29.92,5,0,6,0.66
2013-8-5,86.7,75.4,70.6,80.6,73.1,69.8,99,93,77,29.93,29.71,9,1,10,0.05
2013-8-6,81.8,74.7,70.8,78.2,72.9,69.5,99,94,86,29.82,29.69,9,0,13,0.36
2013-8-7,82.8,75.2,70.3,76.8,73.3,69.7,99,94,79,29.85,29.68,8,0,14,0.42
2013-8-8,82.4,75.3,69.8,75.8,72.4,69.2,99,91,69,29.86,29.73,4,0,9,0.69
2013-8-9,81.7,74.4,71.2,75.5,71.8,69.3,99,92,75,29.92,29.80,3,0,4,0.14
2013-8-10,82.5,74.1,67.4,73.0,68.9,65.9,97,84,66,30.01,29.92,4,0,9,0.00
2013-8-11,83.7,74.0,67.1,77.0,70.8,65.9,98,90,75,29.99,29.90,7,0,9,0.00
2013-8-12,82.3,74.4,70.0,75.5,71.6,68.8,99,91,70,29.93,29.82,9,0,17,0.54
2013-8-13,82.2,72.3,64.9,71.9,67.3,62.8,100,85,61,29.96,29.86,5,0,5,0.00
2013-8-14,77.1,66.5,58.5,63.7,59.5,56.1,99,80,51,30.06,29.96,5,0,7,0.00
2013-8-15,74.7,64.0,52.5,61.8,56.5,51.3,99,78,52,30.05,29.93,5,0,5,0.00
2013-8-16,72.7,64.3,57.2,63.7,58.7,55.5,96,83,62,30.03,29.95,4,0,5,0.00
2013-8-17,78.2,65.9,53.6,67.0,59.8,52.8,99,82,58,30.06,29.96,4,0,6,0.00
2013-8-18,81.3,69.8,58.0,68.9,62.9,57.2,99,80,55,30.05,29.95,4,0,5,0.00
2013-8-19,83.2,71.4,58.7,71.6,64.6,57.8,99,81,53,30.01,29.90,5,0,7,0.00
2013-8-20,84.5,72.6,60.0,71.5,65.3,58.9,99,80,52,29.99,29.91,5,0,6,0.00
2013-8-21,87.0,74.8,60.9,73.6,67.4,59.8,99,80,55,30.00,29.92,6,0,8,0.00
2013-8-22,88.3,77.1,66.3,74.8,69.7,64.5,99,79,49,30.00,29.89,4,0,5,0.00
2013-8-23,88.2,76.9,64.6,75.2,69.9,63.4,99,81,53,29.97,29.88,4,0,5,0.00
2013-8-24,88.5,76.6,69.6,75.8,70.6,68.2,98,83,58,30.04,29.93,6,0,11,0.00
2013-8-25,90.2,78.2,67.3,75.2,70.3,65.9,99,79,51,30.10,30.01,5,0,6,0.00
2013-8-26,89.3,79.1,70.1,77.3,71.9,68.9,99,80,54,30.09,29.96,5,0,7,0.00
2013-8-27,88.7,78.0,67.8,73.4,69.6,66.0,96,77,51,29.99,29.89,6,0,7,0.00
2013-8-28,90.1,78.0,66.9,75.3,70.4,65.7,99,79,52,29.96,29.89,8,0,9,0.00
2013-8-29,91.6,79.8,67.9,78.4,72.5,66.7,99,80,54,29.95,29.85,7,0,8,0.00
2013-8-30,92.8,81.9,73.2,76.8,73.4,69.3,97,77,47,29.87,29.74,6,0,8,0.00
2013-8-31,93.4,81.8,71.3,77.3,72.5,69.2,96,76,48,29.77,29.66,7,0,11,0.00
2013-9-1,83.2,76.3,71.9,74.2,71.9,68.6,96,87,70,29.78,29.66,8,0,13,0.21
2013-9-2,83.3,73.7,64.7,70.3,66.4,61.9,99,80,52,29.88,29.76,6,0,8,0.00
2013-9-3,84.4,70.3,57.2,68.0,61.5,56.1,99,76,44,29.96,29.86,4,0,6,0.00
2013-9-4,85.5,70.3,55.9,68.1,61.0,54.8,99,75,44,30.05,29.94,6,0,6,0.00
2013-9-5,85.1,70.4,56.5,67.4,61.6,55.4,99,77,42,30.09,29.99,4,0,6,0.00
2013-9-6,85.6,71.9,58.2,68.0,62.4,56.6,98,75,41,30.05,29.91,5,0,6,0.00
2013-9-7,89.8,74.4,60.2,73.3,66.2,59.1,99,78,47,29.94,29.82,6,0,7,0.00
2013-9-8,90.7,76.6,65.7,76.1,70.2,64.2,97,82,53,29.85,29.76,5,0,6,0.00
2013-9-9,92.0,79.8,69.6,73.1,68.8,64.7,95,72,41,29.88,29.79,7,0,8,0.00
2013-9-10,91.5,77.6,65.2,70.8,66.4,61.8,97,71,38,29.99,29.86,8,0,9,0.00
2013-9-11,90.8,77.0,64.6,73.9,68.3,63.4,98,77,46,30.02,29.92,5,0,6,0.00
2013-9-12,88.3,75.9,67.7,73.7,68.8,64.8,98,80,56,29.96,29.87,6,0,8,0.00
2013-9-13,76.1,66.5,55.7,64.7,55.6,51.7,91,69,47,30.00,29.90,1,0,7,0.00
2013-9-14,78.0,70.1,61.1,57.9,53.8,51.0,71,57,40,30.02,29.90,2,1,9,0.00
2013-9-15,85.0,70.0,56.0,68.4,58.6,50.9,85,68,49,29.95,29.89,3,0,8,0.00
2013-9-16,72.7,68.3,65.5,69.0,65.5,62.2,97,91,77,30.07,29.94,3,0,5,0.62
2013-9-17,77.8,70.3,63.1,70.6,66.1,62.2,98,87,69,30.05,29.90,6,0,9,0.19
2013-9-18,81.9,74.2,68.3,74.8,69.3,65.5,95,85,69,29.92,29.81,6,0,8,0.04
2013-9-19,87.8,76.5,71.1,73.6,69.1,66.3,90,79,54,29.87,29.74,11,1,12,0.00
2013-9-20,72.6,65.4,55.1,69.5,63.0,52.6,99,92,72,29.85,29.77,8,0,12,2.43
2013-9-21,74.2,59.8,48.6,56.9,51.4,46.3,99,77,41,29.92,29.82,6,0,8,0.00
2013-9-22,75.5,59.5,43.1,56.9,50.7,42.0,99,76,44,29.91,29.79,7,0,8,0.00
2013-9-23,77.2,62.4,47.1,61.1,53.9,45.7,98,76,47,29.85,29.72,9,1,10,0.00
2013-9-24,76.9,65.8,57.7,62.5,58.6,55.7,94,79,54,29.81,29.70,9,1,10,0.00
2013-9-25,78.2,64.8,53.2,65.2,59.3,51.8,98,84,55,29.77,29.71,5,0,8,0.00
2013-9-26,81.4,67.9,53.9,65.8,60.4,52.8,99,79,52,29.87,29.75,7,0,9,0.00
2013-9-27,83.2,72.2,63.6,68.6,64.0,61.9,96,77,50,29.91,29.81,8,1,10,0.00
2013-9-28,78.2,68.6,61.7,70.1,64.7,60.7,97,88,70,29.92,29.79,9,1,13,0.68
2013-9-29,74.5,62.8,53.5,60.7,56.6,52.7,99,82,49,29.96,29.84,4,0,8,0.02
2013-9-30,76.3,66.3,54.8,67.4,62.8,53.1,99,89,68,29.85,29.75,7,0,7,0.00
2013-10-1,82.5,71.8,64.8,70.6,66.3,63.9,99,84,56,29.89,29.78,7,0,8,0.00
2013-10-2,79.9,71.1,63.8,72.8,68.0,62.3,99,90,75,29.91,29.80,7,0,8,0.00
2013-10-3,83.6,73.3,65.4,72.1,68.0,64.5,98,85,63,29.83,29.72,9,1,13,0.00
2013-10-4,84.0,74.5,68.3,72.0,68.3,64.2,97,82,62,29.81,29.73,8,1,11,0.00
2013-10-5,72.4,57.8,48.1,69.2,56.4,46.7,98,95,82,29.90,29.76,9,0,11,1.74
2013-10-6,59.2,51.4,43.0,48.0,44.9,41.5,98,79,58,29.92,29.83,13,2,15,0.00
2013-10-7,69.9,55.9,44.3,53.0,48.0,43.1,96,77,46,30.06,29.92,5,0,6,0.00
2013-10-8,70.9,56.7,42.2,56.3,49.3,40.9,98,78,50,30.08,29.99,11,0,11,0.00
2013-10-9,73.3,58.1,43.4,54.8,49.6,42.0,98,76,45,30.05,29.96,5,0,9,0.00
2013-10-10,74.9,61.0,46.7,60.6,53.8,45.6,98,79,49,30.03,29.84,6,0,8,0.00
2013-10-11,78.8,66.4,56.9,66.5,61.0,55.9,98,84,63,29.87,29.75,11,1,13,0.00
2013-10-12,71.2,62.3,50.9,63.0,58.1,49.0,98,87,65,30.09,29.78,8,0,8,0.31
2013-10-13,70.6,58.8,50.7,54.3,50.6,45.7,97,76,49,30.26,30.09,7,0,9,0.16
2013-10-14,64.7,58.8,52.5,60.8,53.2,44.5,95,82,65,30.19,29.88,8,0,13,0.04
2013-10-15,62.8,58.6,50.9,61.9,56.5,48.7,98,93,80,29.95,29.78,6,0,9,0.44
2013-10-16,59.6,49.9,40.9,48.7,45.3,39.3,97,85,62,30.03,29.92,6,0,10,0.00
2013-10-17,62.1,52.2,44.7,48.0,45.7,42.7,97,80,52,29.97,29.88,9,1,12,0.01
2013-10-18,59.3,48.0,40.1,50.1,44.4,38.9,98,88,67,30.00,29.91,6,0,6,0.18
2013-10-19,57.7,45.1,36.6,43.7,39.1,35.3,97,81,52,30.04,29.94,9,1,11,0.02
2013-10-20,67.9,52.8,41.0,47.6,42.3,39.2,94,71,37,29.95,29.80,12,1,13,0.00
2013-10-21,54.9,47.7,38.6,47.8,42.7,36.7,97,83,62,30.03,29.87,5,0,6,0.00
2013-10-22,64.6,48.7,35.9,47.9,40.8,34.1,98,77,49,30.01,29.84,14,1,15,0.00
2013-10-23,56.2,44.6,34.0,43.9,37.8,32.2,97,78,51,30.11,29.95,7,0,7,0.00
2013-10-24,52.4,42.8,34.4,39.4,34.8,28.9,97,75,43,30.36,30.03,9,0,9,0.00
2013-10-25,55.6,42.0,29.3,35.3,30.3,26.2,96,67,33,30.45,30.15,10,0,10,0.00
2013-10-26,64.6,51.0,39.2,53.8,44.3,32.7,88,78,66,30.15,29.99,14,1,14,0.00
2013-10-27,65.2,48.5,32.5,45.5,38.7,30.5,97,72,36,30.04,29.91,7,0,7,0.00
2013-10-28,47.4,43.0,37.5,47.1,41.8,35.6,99,96,91,30.06,29.96,1,0,2,0.00
2013-10-29,64.3,58.3,53.3,63.6,57.6,51.3,99,98,93,30.08,29.89,7,1,14,1.76
2013-10-30,66.8,64.1,61.3,64.8,63.1,60.3,99,97,92,29.94,29.70,13,1,16,0.99
2013-10-31,73.3,59.5,48.4,67.5,57.8,47.3,99,94,68,29.70,29.32,14,1,14,0.12
2013-11-1,65.1,52.2,45.0,48.7,44.6,40.8,97,78,45,29.89,29.62,11,1,14,0.02
2013-11-2,55.9,45.8,37.2,43.7,39.9,35.6,95,80,57,30.15,29.89,11,1,13,0.01
2013-11-3,37.2,35.2,32.8,35.6,34.0,31.5,97,96,94,30.15,30.13,0,0,1,0.00
2013-11-7,59.5,44.0,31.4,43.8,35.9,30.6,98,76,43,30.37,30.27,5,1,13,0.00
2013-11-8,65.4,47.6,30.7,45.1,36.7,29.7,98,70,34,30.29,30.00,5,1,15,0.00
2013-11-9,65.2,53.2,44.2,46.0,41.3,38.9,88,66,43,30.18,30.01,5,1,12,0.00
2013-11-10,64.9,51.1,37.1,42.1,38.4,34.5,96,65,35,30.31,30.19,2,0,9,0.00
2013-11-11,62.2,51.2,39.3,52.4,44.6,36.0,92,79,63,30.35,30.09,4,1,12,0.00
2013-11-12,39.1,31.2,22.3,35.7,21.5,16.2,90,68,41,30.68,30.36,3,1,11,0.00
2013-11-13,50.3,33.7,17.3,23.9,18.8,14.5,92,60,26,30.66,30.27,4,1,12,0.00
2013-11-14,55.9,43.3,28.2,29.3,22.7,17.9,75,46,23,30.26,29.97,10,1,16,0.35
2013-11-15,58.2,48.9,42.9,48.7,41.7,28.9,91,76,51,29.98,29.78,3,1,13,0.00
2013-11-16,71.1,62.0,51.0,62.6,56.2,48.6,94,82,64,29.79,29.50,7,2,26,0.01
2013-11-17,72.8,65.4,49.1,64.5,45.0,21.8,86,52,21,29.95,29.38,14,5,34,0.00
2013-11-18,60.2,47.5,37.0,40.8,32.2,25.4,85,58,30,30.20,29.94,2,0,7,0.00
2013-11-19,57.1,45.0,33.5,35.2,30.1,23.2,92,60,31,30.21,30.02,13,1,14,0.00
2013-11-20,59.3,48.0,40.3,34.3,30.3,26.0,72,52,31,30.02,29.84,11,2,15,0.00
2013-11-21,53.6,50.1,47.3,50.0,45.7,33.6,97,87,47,30.11,29.92,9,0,10,0.72
2013-11-22,32.9,31.4,30.7,31.9,30.0,28.9,97,95,92,30.48,30.34,7,1,7,0.00
2013-11-23,40.4,32.9,30.4,29.8,25.1,18.2,92,74,51,30.60,30.47,9,1,10,0.00
2013-11-24,29.2,23.0,15.4,15.5,12.2,8.5,82,64,42,30.67,30.34,6,0,9,0.00
2013-11-25,35.6,31.7,28.2,31.4,24.7,15.1,91,76,56,30.34,30.12,5,0,8,0.03
2013-11-26,45.2,34.0,24.1,34.1,26.7,15.4,90,75,57,30.27,30.06,9,1,15,0.01
2013-11-27,34.5,24.9,17.0,17.3,14.3,11.6,85,65,44,30.37,30.25,8,1,10,0.00
2013-11-28,52.8,35.7,22.3,31.1,24.1,14.9,84,64,41,30.40,30.23,16,1,16,0.00
2013-11-29,53.7,38.4,23.5,33.1,28.5,21.5,95,70,42,30.46,30.26,7,0,9,0.00
2013-11-30,61.6,46.1,34.0,44.3,37.0,28.4,87,71,53,30.27,30.03,11,1,14,0.00
2013-12-1,52.9,45.7,35.1,49.2,43.6,33.5,98,92,82,30.06,29.81,4,0,5,0.00
2013-12-2,58.4,49.0,42.5,51.3,46.1,40.9,99,90,73,29.81,29.58,8,0,8,0.00
2013-12-3,61.6,49.0,38.5,54.7,46.8,37.7,99,93,74,29.60,29.48,10,1,11,0.00
2013-12-4,64.8,49.2,32.2,53.1,45.2,29.2,98,87,57,29.85,29.47,15,2,16,0.00
2013-12-5,32.1,24.3,19.4,29.0,20.7,17.5,93,86,74,30.27,29.85,10,1,16,0.53
2013-12-6,22.9,18.6,13.0,19.2,15.4,7.5,92,87,79,30.55,30.21,7,0,9,0.27
2013-12-7,22.0,14.4,3.3,15.0,7.8,0.1,88,76,56,30.64,30.32,7,0,8,0.01
2013-12-8,28.2,23.2,18.4,27.1,20.2,11.6,96,89,71,30.32,29.98,10,1,12,0.01
2013-12-9,27.9,23.3,19.4,26.3,19.5,16.2,94,86,70,30.30,30.12,10,0,12,0.05
2013-12-10,36.0,22.3,8.6,18.6,14.3,6.3,93,73,46,30.39,30.24,9,1,10,0.01
2013-12-11,35.6,22.1,9.8,25.0,15.5,7.1,94,76,55,30.60,30.26,6,0,8,0.00
2013-12-12,43.2,26.6,9.2,21.1,14.8,6.3,91,64,36,30.60,30.24,10,0,11,0.00
2013-12-13,34.5,31.9,25.6,33.3,28.7,18.2,97,88,61,30.23,29.81,10,1,10,0.53
2013-12-14,33.7,30.8,26.1,33.2,29.4,23.3,98,95,89,30.16,29.78,9,1,15,0.43
2013-12-15,47.9,33.1,18.9,34.7,27.3,17.5,96,80,58,30.18,30.02,9,1,12,0.00
2013-12-16,62.8,47.9,36.2,36.6,33.5,30.9,83,59,34,30.05,29.94,8,1,9,0.00
2013-12-17,53.2,38.7,27.5,39.5,30.9,25.8,97,75,48,30.23,30.02,13,0,13,0.00
2013-12-18,63.1,44.5,26.5,39.9,32.7,24.1,94,66,35,30.23,29.86,15,1,16,0.00
2013-12-19,58.4,54.2,48.1,52.0,47.4,38.8,89,78,69,29.86,29.62,13,2,15,0.00
2013-12-20,61.2,44.3,31.7,57.6,42.1,30.5,96,92,77,29.79,29.61,8,1,11,0.02
2013-12-21,35.9,33.6,31.9,35.4,33.0,30.9,98,98,96,29.72,29.44,6,0,7,1.03
2013-12-22,36.1,29.7,24.4,35.6,27.7,22.0,98,92,89,30.29,29.61,12,3,12,0.01
2013-12-23,27.4,21.5,15.7,22.5,18.1,13.9,94,86,73,30.55,30.29,9,1,10,0.00
2013-12-24,34.4,23.2,11.3,24.2,17.4,9.0,93,79,64,30.55,30.25,12,1,15,0.00
2013-12-25,40.2,32.0,26.9,34.2,28.2,22.4,96,86,78,30.33,30.25,9,1,10,0.00
2013-12-26,49.7,35.4,23.1,35.1,27.5,22.1,98,76,41,30.35,30.22,7,1,12,0.00
2013-12-27,53.3,35.3,30.3,50.2,28.3,26.5,89,77,46,30.34,30.23,2,0,3,0.00
2013-12-28,55.4,40.9,27.2,36.7,30.4,23.8,92,67,42,30.23,29.86,8,0,9,0.00
2013-12-29,42.7,29.7,19.5,37.0,23.6,14.1,86,78,62,30.22,29.85,10,1,12,0.00
2013-12-30,36.6,23.3,11.0,20.0,14.0,7.0,84,68,45,30.29,30.18,6,0,7,0.00
2013-12-31,55.9,38.1,22.8,30.0,22.7,16.7,82,56,31,30.33,30.10,10,1,13,0.00
2014-1-1,48.6,36.7,22.0,31.6,27.1,19.5,91,69,48,30.10,29.82,8,1,10,0.05
2014-1-2,21.9,14.5,7.3,19.4,9.2,3.8,90,80,59,30.45,30.06,9,1,12,0.07